Погода в Карши

Погода в Карши : погода сейчас, прогноз погоды и архив. Всё, что Вы хотите узнать о погоде в Карши!

Хотите узнать прогноз погоды в Карши? Тогда Вам сюда: Погода в Карши

Поиск расширенной информации на нашем сайте:

Другие новости

Новости СМИ2

Главная страница сайта

Новости сайта

02.10.2013

Напоминаем, что на нашем новом сайте вы можете получить высокодетализированные прогнозы погоды по пунктам России, СНГ и мира (включающие важные для авиации метеовеличины, такие как направление и скорость ветра, видимость, явления погоды, количество и форма облачности, нижняя и верхняя граница облачности), а также ознакомиться с разнообразными материалами по авиационной метеорологии и подборкой полезных ссылок на эту тему.

Сайт Метеоцентр.Азия посвящён разработке технологий оптимизации авиаметеорологического обслуживания, включая проектирование и перспективное создание нескольких автоматизированных авиаметеорологических систем:
- система выпуска высокодетальных прогностических карт явлений погоды для нижнего воздушного пространства по России и ближнему зарубежью;
- система верификации прогнозов TAF (выпускаемых синоптиками официальных АМСГ РФ и ближнего зарубежья) и AUTOTAF (выпускаемых сайтом Метеоцентр.Азия) - выявление ошибок, онлайн-сопоставление с фактической погодой METAR, автоматическое внесение коррективов в прогнозы при резком отклонении фактической погоды от прогноза, подсчёт оправдываемости прогнозов по элементам и в целом;
- система обработки, анализа и отображения авиаметеорологической информации для применения провайдерами метеорологической информации.


Погода в Карши - сегодня

Время (UTC), дата Ветер
(°,м/с) 
Видим.   Явления Облачность Т
(°С)
Тd
(°С)
f(%) Тe
(°С)
Pmin
(гПа)
dP
(гПа)
Po
(мм)
O2
(г/м3)
Тmin Tmax R s Состояние
почвы
06 26.04.17 нст () 10 км    3/0 верхняя 
[Ci fib]
+27.5 +11.5 37 +31  1013.8  1.1  729  265  +16         
09 26.04.17 210 (ЮЗ) 10 км    3/0 верхняя 
[Ci fib]
+28.3 +11.2 35 +32  1014  0.3  729  264           
12 26.04.17 270 (З) 10 км    3/0 верхняя 
[Ci fib]
+28.9 +13.7 39 +36  1013.3  -0.5  729  263           
15 26.04.17 230 (ЮЗ) 10 км    6/6 1000 м кучево-дожд. 
[Cb calv]
+24.4 +12 46 +29  1014.6  0.6  729  267    +30.1       
18 26.04.17 290 (З) 10 км    10/10 930 м кучево-дожд. 
[Cb calv]
+20.7 +7.6 43 +21  1017.3  731  272    +30.1       
21 26.04.17 290 (З) 10 км    10/10 750 м кучево-дожд. 
[Cb calv]
+16.7 +2.7 39 +16  1018.6  0.7  731  277           
03 27.04.17 210 (ЮЗ) 10 км    6/0 средняя 
[Ac trans]
+14 +5.8 58 +13  1022.3  1.8  733  280           
06 27.04.17 280 (З) 10 км    10/0 средняя 
[Ac und]
+18.5 +8.5 52 +18  1023.7  2.1  735  276  +13.6         
09 27.04.17 300 (СЗ) 10 км    10/0 средняя 
[Ac und]
+15.2 +11.1 76 +17  1025.3  1.1  736  279           
12 27.04.17 310 (СЗ) 10 км  {ливн. осадки}  10/3 1500 м кучево-дожд., средняя 
[Cb calv|Ac und]
+14.4 +10.2 76 +16  1026.4  0.9  737  280           
18 27.04.17 320 (СЗ) 10 км    10/6 1500 м кучево-дожд., средняя 
[Cb calv|Ac und]
+13.1 +10.2 83 +15  1028.5  0.8  738  282    +20.1  0.0     
21 27.04.17 320 (СЗ) 10 км    10/4 1000 м кучево-дожд., средняя 
[Cb calv|Ac und]
+11.4 +8.8 84 +11  1028.7  738  284           
00 28.04.17 310 (СЗ) 10 км    ясно 
+5.9 +3.8 86 +5  1029.5  -0.1  738  290           
03 28.04.17 330 (СЗ) 10 км    3/0 верхняя 
[Ci fib]
+10.8 +7.4 79 +10  1029.2  0.5  738  285           
06 28.04.17 100 (В) 10  10 км    ясно 
+17 +5.6 47 +16  1029.2  0.9  739  279  +5.9         
09 28.04.17 360 (С) 10 км    ясно 
+18.1 +3.6 38 +18  1028  -1  738  278           
12 28.04.17 350 (С) 10 км    ясно 
+19 +0.9 30 +19  1027.3  -0.6  738  278           
15 28.04.17 350 (С) 10 км    ясно 
+16.7 +2.7 39 +17  1026.3  -1.2  737  279    +19.9       
18 28.04.17 360 (С) 10 км    ясно 
+12.8 +3.4 53 +13  1026.7  -0.2  737  283    +19.9       
21 28.04.17 тихо ()   10 км    ясно 
+9 +2.1 62 +9  1025.6  -1.7  735  286           
00 29.04.17 070 (В) 4000 м  дымка  ясно 
+7 +3.2 77 +8  1025.6  -0.3  735  288           
03 29.04.17 070 (В) 10 км    ясно 
+11.2 +7 75 +11  1026.2  1.2  736  284           
06 29.04.17 280 (З) 10 км    ясно 
+18 +2.5 35 +19  1025.8  0.7  736  278  +7         
09 29.04.17 140 (ЮВ) 10 км    ясно 
+20.7 +0.9 27 +21  1024.2  -1.2  736  275           
12 29.04.17 360 (С) 10 км    ясно 
+22.5 -0.5 22 +23  1023.6  -0.3  735  274           
Время (UTC), дата Ветер
(°,м/с) 
Видим.   Явления Облачность Т
(°С)
Тd
(°С)
f(%) Тe
(°С)
Pmin
(гПа)
dP
(гПа)
Po
(мм)
O2
(г/м3)
Тmin Tmax R s Состояние
почвы

Для получения пояснительной информации подведите курсор к названию столбца.

ПОГОДА в Карши - архив

Всё, что Вы хотите узнать о погоде в Карши - удобно и подробно!

Выберите нужную дату (начиная с 1 января 2015* года) и нажмите кнопку "Найти".
Будут отображены архивные сводки погоды по пункту Карши, начиная с указанной даты.


Отображать данные в формате CSV (для использования в таблицах Excel)


Внимание! Наш архив погоды предназначен исключительно для личного некоммерческого использования в познавательных целях. Если Вам необходимы официальные справки о состоянии погоды (для производственных, юридических, коммерческих и т.п. целей), обращайтесь в органы Росгидромета.

*Примечание: данная дата относится к архиву по метеостанциям СССР (Россия, СНГ, Балтия).
Архив по метеостанциям Зарубежной Европы и Азии (кроме Китая) хранится 10 дней, по другим регионам земного шара (Китай, Африка, Америка, Австралия, Океания) - 1 день.

Карши - район местоположения метеостанции


Название, широта, долгота, высота метеостанции:
Карши (аэропорт) 38.8°ш. 65.7°д. 376 м над ур. моря [Узбекистан]

Дополнительная информация

В oтличие oт бoльшинства пoгoдных сайтoв мы публикуем пoдрoбную метеoинфoрмацию в детальнoм прoфессиoнальнoм фoрмате.

Характеристики температуры и влажнoсти вoздуха измеряются на высoте 2 м в тени вдали oт зданий и деревьев.
Скoрoсть ветра измеряется на высoте 10 м (на урoвне рoста челoвека скoрoсть ветра ниже в 1.5-2 раза). Если метеoстанция нахoдится в гoрoде или в лесу, тo скoрoсть ветра занижена на 2-4 м/с пo сравнению с oткрытым местoм. Скoрoсть ветра над акватoриями крупных рек и oзёр, а также на вершинах хoлмoв на 2-5 м/с выше, чем в oбычных услoвиях.
Атмoсфернoе давление в разных тoчках местнoсти мoжет значительнo oтличаться oт давления на метеoстанции, в зависимoсти oт услoвий рельефа (при пoдъёме на 10 м давление пoнижается примернo на 1 мм рт.ст.).